BLOCK DM-SL DEB, 45041

Orbit data source: Space-Track

BLOCK DM-SL DEB, 45041 is space debris in GEO originally from a launch on Tue, 24 Dec 2019 UTC launched from the Tyuratam Missile And Space Complex (TTMTR). Debris objects in space refer to the collection of defunct objects orbiting the Earth. Examples of debris include non-operational satellites, rocket bodies, and fragments generated from explosions, collisions, or faulty payload assembly.

Not visible in the next 10 days
Identifier
45041, 2019-095C
Orbit
GEO
Last TLE update
23 hours ago
Origin
Manufacturer
RKKE
Mission
Spacecraft
Bus & Motor
SOZ, Unknown motor
Mass
56 kg wet, 56 kg dry
Launch date (UTC)
2019-12-24 (6 years ago)
Launch vehicle
Unknown
Launch site
Tyuratam Missile And Space Complex (TTMTR)
Object type
Payload
Rocket body
Debris
Shape & HBR
Cyl, 1.1 m
Radar Cross Section
0.660 m²

Expand to show TLE details & history

TLE from 23 hours ago
0 BLOCK DM-SL DEB
1 45041U 19095C   25188.35362052 -.00000063  00000-0  00000-0 0  9998
2 45041   4.5013  77.8462 0439855  18.5296 342.8226  1.03024618 20787
Epoch: 2025-07-07T08:29Z
TLE epoch observation values (Epoch: 2025-07-07T08:29:12.812Z)
Latitude
-0°
Longitude
24.75366°
Altitude
33,290.913 km
Speed
3.236 km/s
True Right ascension
05h 10m 29s
True Declination
0° 00' 00"
Sunlit
Object was in daylight at epoch
Visualization orbit readout
Latitude
0.16682°
Longitude
26.85106°
Altitude
33,271.976 km
Speed
3.237 km/s
Apparent Right ascension
05h 35m 34s
Apparent Declination
-5° 11' 44"
Sunlit
Object is in daylight
Visualization observer readout
Local Sidereal Time
20:00:02
Azimuth
52.726° ENE
Elevation
-42.465°
Doppler factor
1
Orbital elements
Apogee altitude
36,854.691 km
Perigee altitude
33,211.695 km
Semi-major axis
41,411.33 km
Eccentricity
0.04399
Inclination
4.5013°
RAAN
77.8462°
Arg. of periapsis
18.5296°
True anomaly
Unknown
Mean anomaly
342.8226°
Eccentric anomaly
Unknown
Mean motion
0.25755 °/min
Orbital period
1,397.78 mins
BSTAR
0
Loading historical data...
45041 neighbors
Loading maneuver chart data...
Loading SW <> Apogee altitude chart data...
Loading historical data...
Loading historical data...
Loading historical data...
Loading historical data...
Loading historical data...
Loading historical data...
Loading historical data...
Other satellites on launch #95 in the year 2019 (2019-12-24 UTC)

BLOCK DM-SL DEB Visibility

Observer location: undefined°, undefined°

BLOCK DM-SL DEB is likely not visible in the next few days
Span
Click to sort rows by Start time (UTC) header in descending order
Start Az.
Max El. time (UTC)
Max El. Az.
Max El.
End time (UTC)
End Az.
|